sat.trackr.live / text

‹ back to catalog

STARLINK-5567

NORAD 55377 · 2023-013AY

PAYLOAD ACTIVE UNKNOWN

§ Identity

Operator
Country
US
Launch date
2023-01-26
Launch site
AFETR
Launch vehicle
Mass (kg)
RCS (m²)

Purposes: comms

External: N2YO · Heavens-Above · Gunter

§ Orbital elements

Epoch: 2026-09-20T10:21:53.355456Z

Period
94.27 min
Inclination
43.0051°
Eccentricity
0.0001874
Mean motion
15.27576758 rev/d
Perigee alt
481.8 km
Apogee alt
484.3 km
Semi-major
6,861.2 km
B*
2.1639e-5
RAAN
298.5503°
Arg perigee
277.0447°
Mean anomaly
83.0191°
Rev number
20,128

§ Raw data

STARLINK-55671 55377U 23013AY  26263.43186754  .00000333  00000+0  21639-4 0  99962 55377  43.0051 298.5503 0001874 277.0447  83.0191 15.27576758201283

JSON: /api/v1/satellites/55377 · /tle

For live sub-satellite position, see the globe view (requires WebGL).

§ Visibility from observer

Set your observer location to see the next 7 days of passes ≥ 10°. The values pass through the URL so the page stays shareable.

No JS? Fill the form by hand. The geolocation button needs JavaScript.